Location: El Manguito
(10.2358°N, 67.3634°W)
Time: 14:56:01
(UTC+00:00)

CENTAUR R/B - Pass Details

Date: 01 April 2023
Orbit: 700 x 1487 km, 63.4° (Epoch: 16 May)

Event Time Altitude Azimuth Distance (km) Brightness Sun altitude
Rises 23:10:08 0° 340° (NNW) 4,506 6.3 -8.2°
Reaches altitude 10° 23:13:03 10° 342° (NNW) 3,576 5.8 -8.9°
Maximum altitude 23:22:07 75° 66° (ENE) 1,530 3.4 -11.1°
Drops below altitude 10° 23:30:59 10° 151° (SSE) 3,499 5.0 -13.3°
Sets 23:33:47 0° 152° (SSE) 4,405 5.6 -14.0°
